Time,TemperatureF,DewpointF,PressureIn,WindDirection,WindDirectionDegrees,WindSpeedMPH,WindSpeedGustMPH,Humidity,HourlyPrecipIn,Conditions,Clouds,dailyrainin,SoftwareType,DateUTC
2013-01-08 00:03:00,40.0,-99.9,-100.00,NNE,30,0.0,0.0,-999,-99.99,,,-99.99,,2013-01-08 06:03:00,
2013-01-08 00:12:00,40.0,-99.9,-100.00,NNE,30,0.0,0.0,-999,-99.99,,,-99.99,,2013-01-08 06:12:00,
2013-01-08 00:23:00,39.0,-99.9,-100.00,NNE,30,0.0,0.0,-999,-99.99,,,-99.99,,2013-01-08 06:23:00,
2013-01-08 00:33:00,39.0,-99.9,-100.00,NNE,30,0.0,0.0,-999,-99.99,,,-99.99,,2013-01-08 06:33:00,
2013-01-08 00:43:00,39.0,-99.9,-100.00,NNE,30,0.0,0.0,-999,-99.99,,,-99.99,,2013-01-08 06:43:00,
2013-01-08 00:53:00,39.0,-99.9,-100.00,NNE,30,0.0,0.0,-999,-99.99,,,-99.99,,2013-01-08 06:53:00,
2013-01-08 01:02:00,39.0,-99.9,-100.00,NNE,30,0.0,0.0,-999,-99.99,,,-99.99,,2013-01-08 07:02:00,
2013-01-08 01:12:00,39.0,-99.9,-100.00,NNE,30,0.0,0.0,-999,-99.99,,,-99.99,,2013-01-08 07:12:00,
2013-01-08 01:22:00,39.0,-99.9,-100.00,NNE,30,0.0,0.0,-999,-99.99,,,-99.99,,2013-01-08 07:22:00,
2013-01-08 01:32:00,39.0,-99.9,-100.00,NNE,30,0.0,0.0,-999,-99.99,,,-99.99,,2013-01-08 07:32:00,
2013-01-08 01:42:00,39.0,-99.9,-100.00,NNE,30,0.0,0.0,-999,-99.99,,,-99.99,,2013-01-08 07:42:00,
2013-01-08 01:53:00,40.0,-99.9,-100.00,NNE,30,0.0,0.0,-999,-99.99,,,-99.99,,2013-01-08 07:53:00,
2013-01-08 02:02:00,40.0,-99.9,-100.00,NNE,30,0.0,0.0,-999,-99.99,,,-99.99,,2013-01-08 08:02:00,
2013-01-08 02:12:00,40.0,-99.9,-100.00,NNE,30,0.0,0.0,-999,-99.99,,,-99.99,,2013-01-08 08:12:00,
2013-01-08 02:22:00,40.0,-99.9,-100.00,NNE,30,0.0,0.0,-999,-99.99,,,-99.99,,2013-01-08 08:22:00,
2013-01-08 02:33:00,40.0,-99.9,-100.00,NNE,30,0.0,0.0,-999,-99.99,,,-99.99,,2013-01-08 08:33:00,
2013-01-08 02:42:00,40.0,-99.9,-100.00,NNE,30,0.0,0.0,-999,-99.99,,,-99.99,,2013-01-08 08:42:00,
2013-01-08 02:53:00,41.0,-99.9,-100.00,NNE,30,0.0,0.0,-999,-99.99,,,-99.99,,2013-01-08 08:53:00,
2013-01-08 03:02:00,41.0,-99.9,-100.00,NNE,30,0.0,0.0,-999,-99.99,,,-99.99,,2013-01-08 09:02:00,
2013-01-08 03:12:00,42.0,-99.9,-100.00,NNE,30,0.0,0.0,-999,-99.99,,,-99.99,,2013-01-08 09:12:00,
2013-01-08 03:22:00,42.0,-99.9,-100.00,NNE,30,0.0,0.0,-999,-99.99,,,-99.99,,2013-01-08 09:22:00,
2013-01-08 03:33:00,43.0,-99.9,-100.00,NNE,30,0.0,0.0,-999,-99.99,,,-99.99,,2013-01-08 09:33:00,
2013-01-08 03:43:00,43.0,-99.9,-100.00,NNE,30,0.0,0.0,-999,-99.99,,,-99.99,,2013-01-08 09:43:00,
2013-01-08 03:53:00,43.0,-99.9,-100.00,NNE,30,0.0,0.0,-999,-99.99,,,-99.99,,2013-01-08 09:53:00,
2013-01-08 04:03:00,43.0,-99.9,-100.00,NNE,30,0.0,0.0,-999,-99.99,,,-99.99,,2013-01-08 10:03:00,
2013-01-08 04:12:00,43.0,-99.9,-100.00,NNE,30,0.0,0.0,-999,-99.99,,,-99.99,,2013-01-08 10:12:00,
2013-01-08 04:22:00,44.0,-99.9,-100.00,NNE,30,0.0,0.0,-999,-99.99,,,-99.99,,2013-01-08 10:22:00,
2013-01-08 04:33:00,44.0,-99.9,-100.00,NNE,30,0.0,0.0,-999,-99.99,,,-99.99,,2013-01-08 10:33:00,
2013-01-08 04:43:00,44.0,-99.9,-100.00,NNE,30,0.0,0.0,-999,-99.99,,,-99.99,,2013-01-08 10:43:00,
2013-01-08 04:53:00,46.0,-99.9,-100.00,NNE,30,0.0,0.0,-999,-99.99,,,-99.99,,2013-01-08 10:53:00,
2013-01-08 05:02:00,46.0,-99.9,-100.00,NNE,30,0.0,0.0,-999,-99.99,,,-99.99,,2013-01-08 11:02:00,
2013-01-08 05:12:00,46.0,-99.9,-100.00,NNE,30,0.0,0.0,-999,-99.99,,,-99.99,,2013-01-08 11:12:00,
2013-01-08 05:23:00,47.0,-99.9,-100.00,NNE,30,0.0,0.0,-999,-99.99,,,-99.99,,2013-01-08 11:23:00,
2013-01-08 05:33:00,46.0,-99.9,-100.00,NNE,30,0.0,0.0,-999,-99.99,,,-99.99,,2013-01-08 11:33:00,
2013-01-08 05:43:00,46.0,-99.9,-100.00,NNE,30,0.0,0.0,-999,-99.99,,,-99.99,,2013-01-08 11:43:00,
2013-01-08 05:53:00,46.0,-99.9,-100.00,NNE,30,0.0,0.0,-999,-99.99,,,-99.99,,2013-01-08 11:53:00,
2013-01-08 06:03:00,46.0,-99.9,-100.00,NNE,30,0.0,0.0,-999,-99.99,,,-99.99,,2013-01-08 12:03:00,
2013-01-08 06:12:00,46.0,-99.9,-100.00,NNE,30,0.0,0.0,-999,-99.99,,,-99.99,,2013-01-08 12:12:00,
2013-01-08 06:22:00,46.0,-99.9,-100.00,NNE,30,0.0,0.0,-999,-99.99,,,-99.99,,2013-01-08 12:22:00,
2013-01-08 06:33:00,45.0,-99.9,-100.00,NNE,30,0.0,0.0,-999,-99.99,,,-99.99,,2013-01-08 12:33:00,
2013-01-08 06:43:00,45.0,-99.9,-100.00,NNE,30,0.0,0.0,-999,-99.99,,,-99.99,,2013-01-08 12:43:00,
2013-01-08 06:53:00,45.0,-99.9,-100.00,NNE,30,0.0,0.0,-999,-99.99,,,-99.99,,2013-01-08 12:53:00,
2013-01-08 07:03:00,45.0,-99.9,-100.00,NNE,30,0.0,0.0,-999,-99.99,,,-99.99,,2013-01-08 13:03:00,
2013-01-08 07:13:00,45.0,-99.9,-100.00,NNE,30,0.0,0.0,-999,-99.99,,,-99.99,,2013-01-08 13:13:00,
2013-01-08 07:33:00,46.0,-99.9,-100.00,NNE,30,0.0,0.0,-999,-99.99,,,-99.99,,2013-01-08 13:33:00,
2013-01-08 07:43:00,46.0,-99.9,-100.00,NNE,30,0.0,0.0,-999,-99.99,,,-99.99,,2013-01-08 13:43:00,
2013-01-08 07:53:00,46.0,-99.9,-100.00,NNE,30,0.0,0.0,-999,-99.99,,,-99.99,,2013-01-08 13:53:00,
2013-01-08 08:03:00,46.0,-99.9,-100.00,NNE,30,0.0,0.0,-999,-99.99,,,-99.99,,2013-01-08 14:03:00,
2013-01-08 08:13:00,46.0,-99.9,-100.00,NNE,30,0.0,0.0,-999,-99.99,,,-99.99,,2013-01-08 14:13:00,
2013-01-08 08:23:00,47.0,-99.9,-100.00,NNE,30,0.0,0.0,-999,-99.99,,,-99.99,,2013-01-08 14:23:00,
2013-01-08 08:33:00,48.0,-99.9,-100.00,NNE,30,0.0,0.0,-999,-99.99,,,-99.99,,2013-01-08 14:33:00,
2013-01-08 08:44:00,48.0,-99.9,-100.00,NNE,30,0.0,0.0,-999,-99.99,,,-99.99,,2013-01-08 14:44:00,
2013-01-08 08:53:00,48.0,-99.9,-100.00,NNE,30,0.0,0.0,-999,-99.99,,,-99.99,,2013-01-08 14:53:00,
2013-01-08 09:03:00,48.0,-99.9,-100.00,NNE,30,0.0,0.0,-999,-99.99,,,-99.99,,2013-01-08 15:03:00,
2013-01-08 09:12:00,48.0,-99.9,-100.00,NNE,30,0.0,0.0,-999,-99.99,,,-99.99,,2013-01-08 15:12:00,
2013-01-08 09:34:00,53.0,-99.9,-100.00,NNE,29,0.0,0.0,-999,-99.99,,,-99.99,,2013-01-08 15:34:00,
2013-01-08 09:53:00,53.0,-99.9,-100.00,NNE,29,0.0,0.0,-999,-99.99,,,-99.99,,2013-01-08 15:53:00,
2013-01-08 10:03:00,53.0,-99.9,-100.00,NNE,29,0.0,0.0,-999,-99.99,,,-99.99,,2013-01-08 16:03:00,
2013-01-08 10:13:00,53.0,-99.9,-100.00,NNE,29,0.0,0.0,-999,-99.99,,,-99.99,,2013-01-08 16:13:00,
2013-01-08 10:23:00,53.0,-99.9,-100.00,NNE,29,0.0,0.0,-999,-99.99,,,-99.99,,2013-01-08 16:23:00,
2013-01-08 10:53:00,57.0,-99.9,-100.00,NE,54,0.0,0.0,-999,-99.99,,,-99.99,,2013-01-08 16:53:00,
2013-01-08 11:04:00,60.0,-99.9,-100.00,NNE,16,0.0,1.0,-999,-99.99,,,-99.99,,2013-01-08 17:04:00,
2013-01-08 11:13:00,60.0,-99.9,-100.00,NNE,16,0.0,1.0,-999,-99.99,,,-99.99,,2013-01-08 17:13:00,
2013-01-08 11:23:00,60.0,-99.9,-100.00,NNE,16,0.0,0.0,-999,-99.99,,,-99.99,,2013-01-08 17:23:00,
2013-01-08 11:34:00,60.0,-99.9,-100.00,NNE,16,0.0,0.0,-999,-99.99,,,-99.99,,2013-01-08 17:34:00,
2013-01-08 11:43:00,60.0,-99.9,-100.00,NNE,16,0.0,0.0,-999,-99.99,,,-99.99,,2013-01-08 17:43:00,
2013-01-08 11:54:00,59.0,-99.9,-100.00,North,357,0.0,0.0,-999,-99.99,,,-99.99,,2013-01-08 17:54:00,
2013-01-08 12:04:00,59.0,-99.9,-100.00,NNE,19,0.0,2.0,-999,-99.99,,,-99.99,,2013-01-08 18:04:00,
2013-01-08 12:13:00,59.0,-99.9,-100.00,NNE,19,0.0,2.0,-999,-99.99,,,-99.99,,2013-01-08 18:13:00,
2013-01-08 12:24:00,60.0,-99.9,-100.00,North,11,0.0,2.0,-999,-99.99,,,-99.99,,2013-01-08 18:24:00,
2013-01-08 12:34:00,61.0,-99.9,-100.00,North,2,0.0,2.0,-999,-99.99,,,-99.99,,2013-01-08 18:34:00,
2013-01-08 12:43:00,61.0,-99.9,-100.00,North,2,0.0,2.0,-999,-99.99,,,-99.99,,2013-01-08 18:43:00,
2013-01-08 12:53:00,63.0,-99.9,-100.00,North,2,0.0,0.0,-999,-99.99,,,-99.99,,2013-01-08 18:53:00,
2013-01-08 13:04:00,65.0,-99.9,-100.00,NNE,22,0.0,2.0,-999,-99.99,,,-99.99,,2013-01-08 19:04:00,
2013-01-08 13:12:00,65.0,-99.9,-100.00,NNE,22,0.0,2.0,-999,-99.99,,,-99.99,,2013-01-08 19:12:00,
2013-01-08 13:23:00,65.0,-99.9,-100.00,NNE,22,0.0,2.0,-999,-99.99,,,-99.99,,2013-01-08 19:23:00,
2013-01-08 13:33:00,65.0,-99.9,-100.00,NNE,22,0.0,2.0,-999,-99.99,,,-99.99,,2013-01-08 19:33:00,
2013-01-08 14:03:00,66.0,-99.9,-100.00,ENE,61,0.0,1.0,-999,-99.99,,,-99.99,,2013-01-08 20:03:00,
2013-01-08 14:12:00,66.0,-99.9,-100.00,ENE,61,0.0,1.0,-999,-99.99,,,-99.99,,2013-01-08 20:12:00,
2013-01-08 14:23:00,66.0,-99.9,-100.00,ENE,61,0.0,0.0,-999,-99.99,,,-99.99,,2013-01-08 20:23:00,
2013-01-08 14:33:00,65.0,-99.9,-100.00,ENE,61,0.0,0.0,-999,-99.99,,,-99.99,,2013-01-08 20:33:00,
2013-01-08 14:43:00,65.0,-99.9,-100.00,ENE,61,0.0,0.0,-999,-99.99,,,-99.99,,2013-01-08 20:43:00,
2013-01-08 14:54:00,64.0,-99.9,-100.00,ENE,61,0.0,0.0,-999,-99.99,,,-99.99,,2013-01-08 20:54:00,
2013-01-08 15:03:00,64.0,-99.9,-100.00,ENE,61,0.0,0.0,-999,-99.99,,,-99.99,,2013-01-08 21:03:00,
2013-01-08 15:13:00,64.0,-99.9,-100.00,ENE,61,0.0,0.0,-999,-99.99,,,-99.99,,2013-01-08 21:13:00,
2013-01-08 15:23:00,64.0,-99.9,-100.00,ENE,61,0.0,0.0,-999,-99.99,,,-99.99,,2013-01-08 21:23:00,
2013-01-08 15:34:00,64.0,-99.9,-100.00,ENE,61,0.0,0.0,-999,-99.99,,,-99.99,,2013-01-08 21:34:00,
2013-01-08 15:43:00,64.0,-99.9,-100.00,ENE,61,0.0,0.0,-999,-99.99,,,-99.99,,2013-01-08 21:43:00,
2013-01-08 15:53:00,65.0,-99.9,-100.00,ENE,61,0.0,0.0,-999,-99.99,,,-99.99,,2013-01-08 21:53:00,
2013-01-08 16:04:00,65.0,-99.9,-100.00,ENE,61,0.0,0.0,-999,-99.99,,,-99.99,,2013-01-08 22:04:00,
2013-01-08 16:13:00,65.0,-99.9,-100.00,ENE,61,0.0,0.0,-999,-99.99,,,-99.99,,2013-01-08 22:13:00,
2013-01-08 16:23:00,65.0,-99.9,-100.00,NNE,33,0.0,0.0,-999,-99.99,,,-99.99,,2013-01-08 22:23:00,
2013-01-08 16:33:00,64.0,-99.9,-100.00,NNE,33,0.0,0.0,-999,-99.99,,,-99.99,,2013-01-08 22:33:00,
2013-01-08 16:43:00,64.0,-99.9,-100.00,NNE,33,0.0,0.0,-999,-99.99,,,-99.99,,2013-01-08 22:43:00,
2013-01-08 16:53:00,63.0,-99.9,-100.00,NNE,33,0.0,0.0,-999,-99.99,,,-99.99,,2013-01-08 22:53:00,
2013-01-08 17:03:00,63.0,-99.9,-100.00,NNE,33,0.0,0.0,-999,-99.99,,,-99.99,,2013-01-08 23:03:00,
2013-01-08 17:13:00,63.0,-99.9,-100.00,NNE,33,0.0,0.0,-999,-99.99,,,-99.99,,2013-01-08 23:13:00,
2013-01-08 17:23:00,62.0,-99.9,-100.00,NNE,33,0.0,0.0,-999,-99.99,,,-99.99,,2013-01-08 23:23:00,
2013-01-08 17:33:00,62.0,-99.9,-100.00,NNE,33,0.0,0.0,-999,-99.99,,,-99.99,,2013-01-08 23:33:00,
2013-01-08 17:43:00,62.0,-99.9,-100.00,NNE,33,0.0,0.0,-999,-99.99,,,-99.99,,2013-01-08 23:43:00,
2013-01-08 17:53:00,62.0,-99.9,-100.00,NNE,33,0.0,0.0,-999,-99.99,,,-99.99,,2013-01-08 23:53:00,
2013-01-08 18:03:00,62.0,-99.9,-100.00,NNE,33,0.0,0.0,-999,-99.99,,,-99.99,,2013-01-09 00:03:00,
2013-01-08 18:13:00,62.0,-99.9,-100.00,NNE,33,0.0,0.0,-999,-99.99,,,-99.99,,2013-01-09 00:13:00,
2013-01-08 18:23:00,62.0,-99.9,-100.00,NNE,33,0.0,0.0,-999,-99.99,,,-99.99,,2013-01-09 00:23:00,
2013-01-08 18:33:00,61.0,-99.9,-100.00,NNE,33,0.0,0.0,-999,-99.99,,,-99.99,,2013-01-09 00:33:00,
2013-01-08 18:43:00,61.0,-99.9,-100.00,NNE,33,0.0,0.0,-999,-99.99,,,-99.99,,2013-01-09 00:43:00,
2013-01-08 18:53:00,61.0,-99.9,-100.00,NNE,33,0.0,0.0,-999,-99.99,,,-99.99,,2013-01-09 00:53:00,
2013-01-08 19:03:00,61.0,-99.9,-100.00,NE,36,0.0,0.0,-999,-99.99,,,-99.99,,2013-01-09 01:03:00,
2013-01-08 19:12:00,61.0,-99.9,-100.00,NE,36,0.0,0.0,-999,-99.99,,,-99.99,,2013-01-09 01:12:00,
2013-01-08 19:22:00,60.0,-99.9,-100.00,ENE,66,0.0,0.0,-999,-99.99,,,-99.99,,2013-01-09 01:22:00,
2013-01-08 19:33:00,60.0,-99.9,-100.00,NE,45,0.0,0.0,-999,-99.99,,,-99.99,,2013-01-09 01:33:00,
2013-01-08 19:43:00,60.0,-99.9,-100.00,NE,45,0.0,0.0,-999,-99.99,,,-99.99,,2013-01-09 01:43:00,
2013-01-08 19:53:00,60.0,-99.9,-100.00,NE,40,0.0,0.0,-999,-99.99,,,-99.99,,2013-01-09 01:53:00,
2013-01-08 20:03:00,60.0,-99.9,-100.00,NNE,29,0.0,0.0,-999,-99.99,,,-99.99,,2013-01-09 02:03:00,
2013-01-08 20:12:00,60.0,-99.9,-100.00,NNE,29,0.0,0.0,-999,-99.99,,,-99.99,,2013-01-09 02:12:00,
2013-01-08 20:23:00,60.0,-99.9,-100.00,NE,49,0.0,2.0,-999,-99.99,,,-99.99,,2013-01-09 02:23:00,
2013-01-08 20:33:00,61.0,-99.9,-100.00,NE,43,0.0,2.0,-999,-99.99,,,-99.99,,2013-01-09 02:33:00,
2013-01-08 20:43:00,61.0,-99.9,-100.00,NE,43,0.0,2.0,-999,-99.99,,,-99.99,,2013-01-09 02:43:00,
2013-01-08 20:53:00,60.0,-99.9,-100.00,NE,43,0.0,0.0,-999,-99.99,,,-99.99,,2013-01-09 02:53:00,
2013-01-08 21:03:00,60.0,-99.9,-100.00,NE,43,0.0,0.0,-999,-99.99,,,-99.99,,2013-01-09 03:03:00,
2013-01-08 21:12:00,60.0,-99.9,-100.00,NE,43,0.0,0.0,-999,-99.99,,,-99.99,,2013-01-09 03:12:00,
2013-01-08 21:22:00,60.0,-99.9,-100.00,NE,43,0.0,0.0,-999,-99.99,,,-99.99,,2013-01-09 03:22:00,
2013-01-08 21:33:00,60.0,-99.9,-100.00,NE,43,0.0,0.0,-999,-99.99,,,-99.99,,2013-01-09 03:33:00,
2013-01-08 21:43:00,60.0,-99.9,-100.00,NE,43,0.0,0.0,-999,-99.99,,,-99.99,,2013-01-09 03:43:00,
2013-01-08 21:53:00,60.0,-99.9,-100.00,NE,43,0.0,0.0,-999,-99.99,,,-99.99,,2013-01-09 03:53:00,
2013-01-08 22:02:00,60.0,-99.9,-100.00,NE,43,0.0,0.0,-999,-99.99,,,-99.99,,2013-01-09 04:02:00,
2013-01-08 22:12:00,60.0,-99.9,-100.00,NE,43,0.0,0.0,-999,-99.99,,,-99.99,,2013-01-09 04:12:00,
2013-01-08 22:23:00,59.0,-99.9,-100.00,NE,43,0.0,0.0,-999,-99.99,,,-99.99,,2013-01-09 04:23:00,
2013-01-08 22:33:00,59.0,-99.9,-100.00,NE,43,0.0,0.0,-999,-99.99,,,-99.99,,2013-01-09 04:33:00,
2013-01-08 22:43:00,59.0,-99.9,-100.00,NE,43,0.0,0.0,-999,-99.99,,,-99.99,,2013-01-09 04:43:00,
2013-01-08 22:53:00,59.0,-99.9,-100.00,NE,43,0.0,0.0,-999,-99.99,,,-99.99,,2013-01-09 04:53:00,
2013-01-08 23:04:00,59.0,-99.9,-100.00,NE,43,0.0,0.0,-999,-99.99,,,-99.99,,2013-01-09 05:04:00,
2013-01-08 23:12:00,59.0,-99.9,-100.00,NE,43,0.0,0.0,-999,-99.99,,,-99.99,,2013-01-09 05:12:00,
2013-01-08 23:22:00,59.0,-99.9,-100.00,NE,43,0.0,0.0,-999,-99.99,,,-99.99,,2013-01-09 05:22:00,
2013-01-08 23:33:00,59.0,-99.9,-100.00,NE,43,0.0,0.0,-999,-99.99,,,-99.99,,2013-01-09 05:33:00,
2013-01-08 23:43:00,59.0,-99.9,-100.00,NE,43,0.0,0.0,-999,-99.99,,,-99.99,,2013-01-09 05:43:00,
2013-01-08 23:53:00,59.0,-99.9,-100.00,NE,43,0.0,0.0,-999,-99.99,,,-99.99,,2013-01-09 05:53:00,